Time,TemperatureF,DewpointF,PressureIn,WindDirection,WindDirectionDegrees,WindSpeedMPH,WindSpeedGustMPH,Humidity,HourlyPrecipIn,Conditions,Clouds,dailyrainin,SolarRadiationWatts/m^2,SoftwareType,DateUTC
2013-08-11 00:00:00,60.1,53.5,30.12,WNW,288,0.0,0.0,79,0.00,CLR,,0.00,0.0,WeatherDisplay:10.37,2013-08-10 22:00:00,
2013-08-11 00:05:00,60.1,53.2,30.12,WNW,288,0.0,0.0,78,0.00,CLR,,0.00,0.0,WeatherDisplay:10.37,2013-08-10 22:05:00,
2013-08-11 00:10:00,60.2,53.6,30.13,WNW,288,0.0,0.0,79,0.00,CLR,,0.00,0.0,WeatherDisplay:10.37,2013-08-10 22:10:00,
2013-08-11 00:15:00,60.2,53.6,30.13,WNW,288,0.0,0.0,79,0.00,CLR,,0.00,0.0,WeatherDisplay:10.37,2013-08-10 22:15:00,
2013-08-11 00:20:00,60.3,53.7,30.12,WNW,288,0.0,0.0,79,0.00,CLR,,0.00,0.0,WeatherDisplay:10.37,2013-08-10 22:20:00,
2013-08-11 00:25:00,60.4,53.8,30.12,WNW,288,0.0,0.0,79,0.00,CLR,,0.00,0.0,WeatherDisplay:10.37,2013-08-10 22:25:00,
2013-08-11 00:30:00,60.4,54.2,30.12,WNW,288,0.0,0.0,80,0.00,CLR,,0.00,0.0,WeatherDisplay:10.37,2013-08-10 22:30:00,
2013-08-11 00:35:00,60.4,53.8,30.12,WNW,288,0.0,0.0,79,0.00,OVC,,0.00,0.0,WeatherDisplay:10.37,2013-08-10 22:35:00,
2013-08-11 00:40:00,60.4,53.8,30.12,WNW,288,0.0,0.0,79,0.00,OVC,,0.00,0.0,WeatherDisplay:10.37,2013-08-10 22:40:00,
2013-08-11 00:45:00,60.4,53.8,30.12,WNW,288,0.0,0.0,79,0.00,OVC,,0.00,0.0,WeatherDisplay:10.37,2013-08-10 22:45:00,
2013-08-11 00:50:00,60.4,53.8,30.12,WNW,288,0.0,0.0,79,0.00,OVC,,0.00,0.0,WeatherDisplay:10.37,2013-08-10 22:50:00,
2013-08-11 00:55:00,60.4,53.8,30.12,WNW,288,0.0,0.0,79,0.00,OVC,,0.00,0.0,WeatherDisplay:10.37,2013-08-10 22:55:00,
2013-08-11 01:00:00,60.4,53.8,30.11,WNW,288,0.0,0.0,79,0.00,OVC,,0.00,0.0,WeatherDisplay:10.37,2013-08-10 23:00:00,
2013-08-11 01:05:00,60.4,53.8,30.11,WNW,288,0.0,0.0,79,0.00,FEW,,0.00,0.0,WeatherDisplay:10.37,2013-08-10 23:05:00,
2013-08-11 01:10:00,60.3,53.7,30.11,WNW,288,0.0,0.0,79,0.00,FEW,,0.00,0.0,WeatherDisplay:10.37,2013-08-10 23:10:00,
2013-08-11 01:15:00,60.3,54.1,30.11,WNW,288,0.0,0.0,80,0.00,FEW,,0.00,0.0,WeatherDisplay:10.37,2013-08-10 23:15:00,
2013-08-11 01:20:00,60.3,54.1,30.11,WNW,288,0.0,0.0,80,0.00,FEW,,0.00,0.0,WeatherDisplay:10.37,2013-08-10 23:20:00,
2013-08-11 01:25:00,60.2,54.0,30.11,WNW,288,0.0,0.0,80,0.00,FEW,,0.00,0.0,WeatherDisplay:10.37,2013-08-10 23:25:00,
2013-08-11 01:30:00,60.2,54.0,30.11,WNW,288,0.0,0.0,80,0.00,FEW,,0.00,0.0,WeatherDisplay:10.37,2013-08-10 23:30:00,
2013-08-11 01:35:00,60.2,54.0,30.11,WNW,288,0.0,0.0,80,0.00,CLR,,0.00,0.0,WeatherDisplay:10.37,2013-08-10 23:35:00,
2013-08-11 01:40:00,60.2,54.0,30.11,WNW,288,0.0,0.0,80,0.00,CLR,,0.00,0.0,WeatherDisplay:10.37,2013-08-10 23:40:00,
2013-08-11 01:45:00,60.2,54.0,30.11,WNW,288,0.0,0.0,80,0.00,CLR,,0.00,0.0,WeatherDisplay:10.37,2013-08-10 23:45:00,
2013-08-11 01:50:00,60.2,54.0,30.10,WNW,288,0.0,0.0,80,0.00,CLR,,0.00,0.0,WeatherDisplay:10.37,2013-08-10 23:50:00,
2013-08-11 01:55:00,60.2,53.6,30.10,WNW,288,0.0,0.0,79,0.00,CLR,,0.00,0.0,WeatherDisplay:10.37,2013-08-10 23:55:00,
2013-08-11 02:00:00,60.2,53.6,30.10,WNW,288,0.0,0.0,79,0.00,CLR,,0.00,0.0,WeatherDisplay:10.37,2013-08-11 00:00:00,
2013-08-11 02:05:00,60.2,53.6,30.10,WNW,288,0.0,0.0,79,0.00,FEW,,0.00,0.0,WeatherDisplay:10.37,2013-08-11 00:05:00,
2013-08-11 02:10:00,60.2,53.6,30.10,WNW,288,0.0,0.0,79,0.00,FEW,,0.00,0.0,WeatherDisplay:10.37,2013-08-11 00:10:00,
2013-08-11 02:15:00,60.2,53.6,30.10,WNW,288,0.0,0.0,79,0.00,FEW,,0.00,0.0,WeatherDisplay:10.37,2013-08-11 00:15:00,
2013-08-11 02:20:00,60.2,53.6,30.10,WNW,288,0.0,3.5,79,0.00,FEW,,0.00,0.0,WeatherDisplay:10.37,2013-08-11 00:20:00,
2013-08-11 02:25:00,60.1,53.5,30.09,WNW,288,0.0,0.0,79,0.00,FEW,,0.00,0.0,WeatherDisplay:10.37,2013-08-11 00:25:00,
2013-08-11 02:30:00,60.1,53.5,30.09,WNW,288,0.0,0.0,79,0.00,FEW,,0.00,0.0,WeatherDisplay:10.37,2013-08-11 00:30:00,
2013-08-11 02:35:00,60.0,53.4,30.09,WNW,288,0.0,0.0,79,0.00,FEW,,0.00,0.0,WeatherDisplay:10.37,2013-08-11 00:35:00,
2013-08-11 02:40:00,60.0,53.4,30.09,WNW,288,0.0,0.0,79,0.00,FEW,,0.00,0.0,WeatherDisplay:10.37,2013-08-11 00:40:00,
2013-08-11 02:45:00,59.9,53.4,30.09,WNW,288,0.0,0.0,79,0.00,FEW,,0.00,0.0,WeatherDisplay:10.37,2013-08-11 00:45:00,
2013-08-11 02:50:00,59.9,53.4,30.08,WNW,288,0.0,0.0,79,0.00,FEW,,0.00,0.0,WeatherDisplay:10.37,2013-08-11 00:50:00,
2013-08-11 02:55:00,60.0,53.4,30.08,WNW,288,0.0,0.0,79,0.00,FEW,,0.00,0.0,WeatherDisplay:10.37,2013-08-11 00:55:00,
2013-08-11 03:00:00,60.1,53.9,30.08,WNW,288,0.0,0.0,80,0.00,FEW,,0.00,0.0,WeatherDisplay:10.37,2013-08-11 01:00:00,
2013-08-11 03:05:00,60.1,53.9,30.08,WNW,288,0.0,0.0,80,0.00,CLR,,0.00,0.0,WeatherDisplay:10.37,2013-08-11 01:05:00,
2013-08-11 03:10:00,60.2,54.0,30.07,WNW,288,0.0,0.0,80,0.00,CLR,,0.00,0.0,WeatherDisplay:10.37,2013-08-11 01:10:00,
2013-08-11 03:15:00,60.3,54.1,30.07,WNW,288,0.0,0.0,80,0.00,CLR,,0.00,0.0,WeatherDisplay:10.37,2013-08-11 01:15:00,
2013-08-11 03:20:00,60.4,54.2,30.07,WNW,288,0.7,5.0,80,0.00,CLR,,0.00,0.0,WeatherDisplay:10.37,2013-08-11 01:20:00,
2013-08-11 03:25:00,60.4,54.2,30.07,WNW,288,3.4,4.6,80,0.00,CLR,,0.00,0.0,WeatherDisplay:10.37,2013-08-11 01:25:00,
2013-08-11 03:30:00,60.4,54.2,30.06,WNW,288,0.9,1.2,80,0.00,CLR,,0.00,0.0,WeatherDisplay:10.37,2013-08-11 01:30:00,
2013-08-11 03:35:00,60.4,54.2,30.06,WNW,288,1.0,3.5,80,0.00,BKN,,0.00,0.0,WeatherDisplay:10.37,2013-08-11 01:35:00,
2013-08-11 03:40:00,60.5,53.9,30.06,WNW,284,1.6,2.0,79,0.00,BKN,,0.00,0.0,WeatherDisplay:10.37,2013-08-11 01:40:00,
2013-08-11 03:45:00,60.6,53.7,30.06,WNW,283,0.1,3.5,78,0.00,BKN,,0.00,0.0,WeatherDisplay:10.37,2013-08-11 01:45:00,
2013-08-11 03:50:00,60.7,53.8,30.06,West,280,0.1,3.5,78,0.00,BKN,,0.00,0.0,WeatherDisplay:10.37,2013-08-11 01:50:00,
2013-08-11 03:55:00,60.8,53.5,30.06,West,279,0.0,5.8,77,0.00,BKN,,0.00,0.0,WeatherDisplay:10.37,2013-08-11 01:55:00,
2013-08-11 04:00:00,60.8,53.5,30.06,West,277,1.9,3.5,77,0.00,BKN,,0.00,0.0,WeatherDisplay:10.37,2013-08-11 02:00:00,
2013-08-11 04:05:00,60.8,53.5,30.06,West,275,1.2,5.8,77,0.00,FEW,,0.00,0.0,WeatherDisplay:10.37,2013-08-11 02:05:00,
2013-08-11 04:10:00,60.7,53.4,30.06,West,263,2.5,5.0,77,0.00,FEW,,0.00,0.0,WeatherDisplay:10.37,2013-08-11 02:10:00,
2013-08-11 04:15:00,60.7,53.4,30.06,West,262,3.3,5.8,77,0.00,FEW,,0.00,0.0,WeatherDisplay:10.37,2013-08-11 02:15:00,
2013-08-11 04:20:00,60.6,53.3,30.06,WSW,257,2.8,3.5,77,0.00,FEW,,0.00,0.0,WeatherDisplay:10.37,2013-08-11 02:20:00,
2013-08-11 04:25:00,60.5,53.2,30.05,WSW,257,2.2,5.8,77,0.00,FEW,,0.00,0.0,WeatherDisplay:10.37,2013-08-11 02:25:00,
2013-08-11 04:30:00,60.4,53.1,30.05,WSW,245,0.0,3.5,77,0.00,FEW,,0.00,0.0,WeatherDisplay:10.37,2013-08-11 02:30:00,
2013-08-11 04:35:00,60.3,53.4,30.05,WSW,245,0.0,0.0,78,0.00,FEW,,0.00,0.0,WeatherDisplay:10.37,2013-08-11 02:35:00,
2013-08-11 04:40:00,60.2,53.6,30.05,WSW,245,0.0,0.0,79,0.00,FEW,,0.00,0.0,WeatherDisplay:10.37,2013-08-11 02:40:00,
2013-08-11 04:45:00,60.1,53.9,30.05,WSW,245,0.4,3.5,80,0.00,FEW,,0.00,0.0,WeatherDisplay:10.37,2013-08-11 02:45:00,
2013-08-11 04:50:00,60.1,54.2,30.05,WSW,245,0.0,0.0,81,0.00,FEW,,0.00,0.0,WeatherDisplay:10.37,2013-08-11 02:50:00,
2013-08-11 04:55:00,60.2,54.7,30.05,WSW,245,0.0,0.0,82,0.00,FEW,,0.00,0.0,WeatherDisplay:10.37,2013-08-11 02:55:00,
2013-08-11 05:01:00,60.2,54.7,30.04,WSW,245,0.0,0.0,82,0.00,FEW,,0.00,0.0,WeatherDisplay:10.37,2013-08-11 03:01:00,
2013-08-11 05:06:00,60.3,54.8,30.04,WSW,245,1.1,3.5,82,0.00,CLR,,0.00,0.0,WeatherDisplay:10.37,2013-08-11 03:06:00,
2013-08-11 05:11:00,60.2,54.7,30.04,WSW,245,0.0,0.0,82,0.00,CLR,,0.00,0.0,WeatherDisplay:10.37,2013-08-11 03:11:00,
2013-08-11 05:16:00,60.1,54.6,30.04,WSW,245,2.1,3.5,82,0.00,CLR,,0.00,0.0,WeatherDisplay:10.37,2013-08-11 03:16:00,
2013-08-11 05:21:00,59.8,54.6,30.04,WSW,245,0.6,3.0,83,0.00,CLR,,0.00,0.0,WeatherDisplay:10.37,2013-08-11 03:21:00,
2013-08-11 05:26:00,59.6,54.7,30.04,WSW,245,0.8,3.5,84,0.00,CLR,,0.00,0.0,WeatherDisplay:10.37,2013-08-11 03:26:00,
2013-08-11 05:31:00,59.4,54.5,30.04,WSW,245,2.1,4.6,84,0.00,CLR,,0.00,0.0,WeatherDisplay:10.37,2013-08-11 03:31:00,
2013-08-11 05:36:00,59.2,54.7,30.04,WSW,245,0.2,3.5,85,0.00,CLR,,0.00,0.0,WeatherDisplay:10.37,2013-08-11 03:36:00,
2013-08-11 05:43:00,59.0,54.8,30.04,WSW,245,1.5,5.8,86,0.00,CLR,,0.00,0.0,WeatherDisplay:10.37,2013-08-11 03:43:00,
2013-08-11 05:48:00,58.9,54.7,30.04,WSW,245,2.2,4.6,86,0.00,CLR,,0.00,0.0,WeatherDisplay:10.37,2013-08-11 03:48:00,
2013-08-11 05:53:00,58.9,55.0,30.04,WSW,245,0.9,3.5,87,0.00,CLR,,0.00,0.0,WeatherDisplay:10.37,2013-08-11 03:53:00,
2013-08-11 05:59:00,58.9,55.3,30.04,WSW,245,0.8,3.5,88,0.00,CLR,,0.00,0.0,WeatherDisplay:10.37,2013-08-11 03:59:00,
2013-08-11 06:01:00,58.9,55.3,30.04,WSW,245,1.0,4.0,88,0.00,CLR,,0.00,0.0,WeatherDisplay:10.37,2013-08-11 04:01:00,
2013-08-11 06:06:00,58.9,55.3,30.04,WSW,245,0.5,3.5,88,0.00,CLR,,0.00,0.0,WeatherDisplay:10.37,2013-08-11 04:06:00,
2013-08-11 06:11:00,58.8,55.5,30.04,WSW,245,1.2,5.8,89,0.00,CLR,,0.00,0.0,WeatherDisplay:10.37,2013-08-11 04:11:00,
2013-08-11 06:16:00,58.8,55.5,30.04,WSW,244,3.3,6.9,89,0.00,CLR,,0.00,0.0,WeatherDisplay:10.37,2013-08-11 04:16:00,
2013-08-11 06:21:00,58.8,55.5,30.04,WSW,244,1.0,5.8,89,0.00,CLR,,0.00,0.0,WeatherDisplay:10.37,2013-08-11 04:21:00,
2013-08-11 06:26:00,58.8,55.9,30.04,WSW,244,4.0,5.0,90,0.00,CLR,,0.00,5.0,WeatherDisplay:10.37,2013-08-11 04:26:00,
2013-08-11 06:31:00,58.8,55.9,30.04,WSW,244,3.7,5.8,90,0.00,FEW,,0.00,9.0,WeatherDisplay:10.37,2013-08-11 04:31:00,
2013-08-11 06:36:00,58.9,56.0,30.04,WSW,244,3.2,3.5,90,0.00,FEW,,0.00,11.0,WeatherDisplay:10.37,2013-08-11 04:36:00,
2013-08-11 06:41:00,59.1,56.1,30.04,WSW,244,1.9,3.5,90,0.00,FEW,,0.00,9.0,WeatherDisplay:10.37,2013-08-11 04:41:00,
2013-08-11 06:46:00,59.1,56.5,30.05,WSW,244,0.0,0.0,91,0.00,FEW,,0.00,11.0,WeatherDisplay:10.37,2013-08-11 04:46:00,
2013-08-11 06:51:00,59.2,56.6,30.05,WSW,244,3.6,6.0,91,0.00,FEW,,0.00,14.0,WeatherDisplay:10.37,2013-08-11 04:51:00,
2013-08-11 06:56:00,59.2,56.6,30.05,WSW,244,1.3,4.0,91,0.00,FEW,,0.00,16.0,WeatherDisplay:10.37,2013-08-11 04:56:00,
2013-08-11 07:01:00,59.2,56.2,30.05,West,259,0.4,3.0,90,0.00,FEW,,0.00,19.0,WeatherDisplay:10.37,2013-08-11 05:01:00,
2013-08-11 07:06:00,59.2,56.6,30.05,West,259,2.0,3.5,91,0.00,FEW,,0.00,23.0,WeatherDisplay:10.37,2013-08-11 05:06:00,
2013-08-11 07:12:00,59.1,56.1,30.05,West,259,0.4,3.5,90,0.00,FEW,,0.00,47.0,WeatherDisplay:10.37,2013-08-11 05:12:00,
2013-08-11 07:17:00,59.2,56.2,30.05,West,259,0.6,3.5,90,0.00,FEW,,0.00,69.0,WeatherDisplay:10.37,2013-08-11 05:17:00,
2013-08-11 07:22:00,59.2,56.2,30.05,WSW,258,0.0,0.0,90,0.00,FEW,,0.00,58.0,WeatherDisplay:10.37,2013-08-11 05:22:00,
2013-08-11 07:27:00,59.2,56.2,30.05,WSW,258,0.0,0.0,90,0.00,FEW,,0.00,97.0,WeatherDisplay:10.37,2013-08-11 05:27:00,
2013-08-11 07:32:00,59.6,56.3,30.05,WSW,258,0.0,4.6,89,0.00,OVC,,0.00,111.0,WeatherDisplay:10.37,2013-08-11 05:32:00,
2013-08-11 07:37:00,60.0,56.7,30.05,WSW,258,0.0,0.0,89,0.00,BKN,,0.00,134.0,WeatherDisplay:10.37,2013-08-11 05:37:00,
2013-08-11 07:42:00,60.4,56.8,30.05,WSW,258,0.0,0.0,88,0.00,BKN,,0.00,158.0,WeatherDisplay:10.37,2013-08-11 05:42:00,
2013-08-11 07:48:00,60.7,56.8,30.05,WSW,258,0.0,0.0,87,0.00,BKN,,0.00,174.0,WeatherDisplay:10.37,2013-08-11 05:48:00,
2013-08-11 07:53:00,60.9,56.7,30.05,West,262,0.0,0.0,86,0.00,BKN,,0.00,206.0,WeatherDisplay:10.37,2013-08-11 05:53:00,
2013-08-11 07:59:00,61.3,57.1,30.05,West,261,0.0,0.0,86,0.00,BKN,,0.00,223.0,WeatherDisplay:10.37,2013-08-11 05:59:00,
2013-08-11 08:04:00,61.6,57.0,30.05,West,261,0.0,0.0,85,0.00,OVC,,0.00,116.0,WeatherDisplay:10.37,2013-08-11 06:04:00,
2013-08-11 08:09:00,61.8,56.6,30.05,West,261,0.0,0.0,83,0.00,BKN,,0.00,176.0,WeatherDisplay:10.37,2013-08-11 06:09:00,
2013-08-11 08:15:00,62.0,56.1,30.05,West,261,0.0,0.0,81,0.00,BKN,,0.00,257.0,WeatherDisplay:10.37,2013-08-11 06:15:00,
2013-08-11 08:20:00,62.3,55.7,30.05,West,261,0.0,0.0,79,0.00,OVC,,0.00,86.0,WeatherDisplay:10.37,2013-08-11 06:20:00,
2013-08-11 08:25:00,62.6,56.0,30.05,West,261,0.0,0.0,79,0.00,BKN,,0.00,81.0,WeatherDisplay:10.37,2013-08-11 06:25:00,
2013-08-11 08:31:00,62.8,55.8,30.05,West,273,0.0,0.0,78,0.00,BKN,,0.00,276.0,WeatherDisplay:10.37,2013-08-11 06:31:00,
2013-08-11 08:36:00,63.3,56.3,30.05,West,273,0.0,1.2,78,0.00,BKN,,0.00,308.0,WeatherDisplay:10.37,2013-08-11 06:36:00,
2013-08-11 08:42:00,63.7,57.0,30.05,WSW,246,0.0,3.5,79,0.00,BKN,,0.00,202.0,WeatherDisplay:10.37,2013-08-11 06:42:00,
2013-08-11 08:47:00,64.0,56.6,30.05,SW,234,0.8,3.5,77,0.00,OVC,,0.00,151.0,WeatherDisplay:10.37,2013-08-11 06:47:00,
2013-08-11 08:52:00,64.2,56.5,30.05,SW,234,0.7,4.0,76,0.00,OVC,,0.00,121.0,WeatherDisplay:10.37,2013-08-11 06:52:00,
2013-08-11 08:57:00,64.2,55.7,30.05,SW,232,1.6,3.5,74,0.00,OVC,,0.00,139.0,WeatherDisplay:10.37,2013-08-11 06:57:00,
2013-08-11 09:02:00,64.2,55.3,30.05,SW,232,0.0,0.0,73,0.00,BKN,,0.00,206.0,WeatherDisplay:10.37,2013-08-11 07:02:00,
2013-08-11 09:08:00,64.3,55.8,30.05,SW,227,0.0,0.0,74,0.00,OVC,,0.00,165.0,WeatherDisplay:10.37,2013-08-11 07:08:00,
2013-08-11 09:13:00,64.3,55.4,30.05,SW,227,3.1,4.6,73,0.00,OVC,,0.00,155.0,WeatherDisplay:10.37,2013-08-11 07:13:00,
2013-08-11 09:19:00,64.2,55.0,30.05,SW,228,2.1,3.5,72,0.00,OVC,,0.00,165.0,WeatherDisplay:10.37,2013-08-11 07:19:00,
2013-08-11 09:24:00,64.4,55.2,30.05,SW,228,0.0,6.0,72,0.00,OVC,,0.00,139.0,WeatherDisplay:10.37,2013-08-11 07:24:00,
2013-08-11 09:29:00,64.5,55.6,30.05,SSW,212,3.2,5.8,73,0.00,OVC,,0.00,137.0,WeatherDisplay:10.37,2013-08-11 07:29:00,
2013-08-11 09:34:00,64.5,55.6,30.05,SSW,213,1.7,4.0,73,0.00,OVC,,0.00,167.0,WeatherDisplay:10.37,2013-08-11 07:34:00,
2013-08-11 09:40:00,64.6,55.3,30.05,SSW,213,1.6,3.5,72,0.00,OVC,,0.00,206.0,WeatherDisplay:10.37,2013-08-11 07:40:00,
2013-08-11 09:45:00,64.6,55.3,30.05,SSW,213,2.7,4.6,72,0.00,OVC,,0.00,151.0,WeatherDisplay:10.37,2013-08-11 07:45:00,
2013-08-11 09:51:00,64.8,55.5,30.05,SSW,213,3.2,5.8,72,0.00,BKN,,0.00,239.0,WeatherDisplay:10.37,2013-08-11 07:51:00,
2013-08-11 09:56:00,64.9,55.6,30.05,SW,214,2.9,6.9,72,0.00,BKN,,0.00,243.0,WeatherDisplay:10.37,2013-08-11 07:56:00,
2013-08-11 10:01:00,65.1,55.4,30.05,SW,218,4.5,6.9,71,0.00,BKN,,0.00,234.0,WeatherDisplay:10.37,2013-08-11 08:01:00,
2013-08-11 10:06:00,65.2,53.9,30.05,WSW,247,6.3,11.5,67,0.00,OVC,,0.00,209.0,WeatherDisplay:10.37,2013-08-11 08:06:00,
2013-08-11 10:11:00,65.8,57.6,30.05,SSW,210,3.9,5.8,75,0.00,OVC,,0.00,185.0,WeatherDisplay:10.37,2013-08-11 08:11:00,
2013-08-11 10:16:00,65.8,58.4,30.05,SSW,212,5.0,9.2,77,0.00,OVC,,0.00,202.0,WeatherDisplay:10.37,2013-08-11 08:16:00,
2013-08-11 10:22:00,65.6,58.5,30.05,SSW,203,7.1,11.0,78,0.00,BKN,,0.00,283.0,WeatherDisplay:10.37,2013-08-11 08:22:00,
2013-08-11 10:27:00,65.8,59.4,30.05,SSW,203,3.0,6.9,80,0.00,BKN,,0.00,294.0,WeatherDisplay:10.37,2013-08-11 08:27:00,
2013-08-11 10:32:00,65.8,59.1,30.05,SSW,211,1.4,4.6,79,0.00,BKN,,0.00,267.0,WeatherDisplay:10.37,2013-08-11 08:32:00,
2013-08-11 10:37:00,65.6,58.9,30.05,SW,222,3.7,9.2,79,0.00,BKN,,0.00,366.0,WeatherDisplay:10.37,2013-08-11 08:37:00,
2013-08-11 10:42:00,65.6,58.9,30.05,SW,225,4.5,8.0,79,0.00,BKN,,0.00,357.0,WeatherDisplay:10.37,2013-08-11 08:42:00,
2013-08-11 10:48:00,65.9,58.8,30.05,SW,232,6.1,8.1,78,0.00,BKN,,0.00,265.0,WeatherDisplay:10.37,2013-08-11 08:48:00,
2013-08-11 10:53:00,65.9,58.1,30.04,SW,226,5.7,9.2,76,0.00,BKN,,0.00,323.0,WeatherDisplay:10.37,2013-08-11 08:53:00,
2013-08-11 10:58:00,66.1,57.9,30.04,SW,217,5.1,10.0,75,0.00,BKN,,0.00,281.0,WeatherDisplay:10.37,2013-08-11 08:58:00,
2013-08-11 11:03:00,66.1,57.9,30.04,SW,219,7.6,11.5,75,0.00,SCT,,0.00,246.0,WeatherDisplay:10.37,2013-08-11 09:03:00,
2013-08-11 11:08:00,66.2,58.0,30.04,SW,224,3.4,9.2,75,0.00,SCT,,0.00,408.0,WeatherDisplay:10.37,2013-08-11 09:08:00,
2013-08-11 11:13:00,66.6,58.4,30.04,SW,232,5.7,9.2,75,0.00,SCT,,0.00,536.0,WeatherDisplay:10.37,2013-08-11 09:13:00,
2013-08-11 11:19:00,67.0,58.8,30.04,SSW,197,6.9,16.1,75,0.00,SCT,,0.00,132.0,WeatherDisplay:10.37,2013-08-11 09:19:00,
2013-08-11 11:24:00,67.0,58.4,30.04,SSW,195,5.6,7.0,74,0.00,SCT,,0.00,62.0,WeatherDisplay:10.37,2013-08-11 09:24:00,
2013-08-11 11:29:00,66.4,56.7,30.04,SW,216,5.6,6.9,71,0.00,SCT,,0.00,28.0,WeatherDisplay:10.37,2013-08-11 09:29:00,
2013-08-11 11:34:00,65.9,56.2,30.04,SW,226,3.6,8.1,71,0.00,FEW,,0.00,23.0,WeatherDisplay:10.37,2013-08-11 09:34:00,
2013-08-11 11:40:00,65.5,56.6,30.04,SW,230,12.1,15.0,73,0.00,FEW,,0.00,77.0,WeatherDisplay:10.37,2013-08-11 09:40:00,
2013-08-11 11:45:00,65.1,58.4,30.05,SW,214,8.6,19.6,79,0.00,FEW,,0.00,105.0,WeatherDisplay:10.37,2013-08-11 09:45:00,
2013-08-11 11:50:00,64.3,58.0,30.04,SW,228,7.1,11.5,80,0.00,FEW,,0.00,262.0,WeatherDisplay:10.37,2013-08-11 09:50:00,
2013-08-11 11:56:00,64.1,58.5,30.04,SSW,194,5.2,11.5,82,0.00,FEW,,0.00,332.0,WeatherDisplay:10.37,2013-08-11 09:56:00,
2013-08-11 12:01:00,64.5,58.9,30.04,SW,216,7.7,15.0,82,0.00,-RA,,0.00,322.0,WeatherDisplay:10.37,2013-08-11 10:01:00,
2013-08-11 12:06:00,64.7,58.4,30.04,WSW,247,6.2,8.1,80,0.00,-RA,,0.00,176.0,WeatherDisplay:10.37,2013-08-11 10:06:00,
2013-08-11 12:12:00,64.4,57.0,30.04,SW,225,6.6,11.5,77,0.00,-RA,,0.00,207.0,WeatherDisplay:10.37,2013-08-11 10:12:00,
2013-08-11 12:18:00,64.5,57.8,30.04,SW,221,3.3,6.0,79,0.00,-RA,,0.00,376.0,WeatherDisplay:10.37,2013-08-11 10:18:00,
2013-08-11 12:23:00,64.8,58.5,30.03,SSW,205,4.2,7.0,80,0.00,-RA,,0.00,396.0,WeatherDisplay:10.37,2013-08-11 10:23:00,
2013-08-11 12:28:00,65.2,57.8,30.03,WSW,241,3.9,6.9,77,0.00,-RA,,0.00,432.0,WeatherDisplay:10.37,2013-08-11 10:28:00,
2013-08-11 12:33:00,65.6,57.8,30.03,South,182,8.1,11.5,76,0.00,-RA,,0.00,376.0,WeatherDisplay:10.37,2013-08-11 10:33:00,
2013-08-11 12:38:00,65.9,57.4,30.03,SW,215,7.3,15.0,74,0.00,-RA,,0.00,134.0,WeatherDisplay:10.37,2013-08-11 10:38:00,
2013-08-11 12:43:00,65.7,56.4,30.04,SW,230,8.6,11.5,72,0.00,-RA,,0.00,79.0,WeatherDisplay:10.37,2013-08-11 10:43:00,
2013-08-11 12:50:00,65.2,57.8,30.04,SW,230,7.3,11.5,77,0.01,-RA,,0.01,95.0,WeatherDisplay:10.37,2013-08-11 10:50:00,
2013-08-11 12:55:00,64.6,58.3,30.03,SW,217,4.7,6.9,80,0.01,-RA,,0.01,77.0,WeatherDisplay:10.37,2013-08-11 10:55:00,
2013-08-11 13:01:00,63.3,57.3,30.03,SW,232,3.5,5.0,81,0.03,-RA,,0.03,146.0,WeatherDisplay:10.37,2013-08-11 11:01:00,
2013-08-11 13:06:00,62.7,57.4,30.03,SW,232,5.1,6.9,83,0.03,-RA,,0.03,105.0,WeatherDisplay:10.37,2013-08-11 11:06:00,
2013-08-11 13:11:00,62.1,57.2,30.03,SW,232,0.4,3.5,84,0.03,-RA,,0.03,176.0,WeatherDisplay:10.37,2013-08-11 11:11:00,
2013-08-11 13:16:00,62.0,57.7,30.03,SW,232,0.3,2.3,86,0.03,-RA,,0.03,290.0,WeatherDisplay:10.37,2013-08-11 11:16:00,
2013-08-11 13:22:00,62.5,58.6,30.02,SW,228,2.9,6.9,87,0.03,-RA,,0.03,195.0,WeatherDisplay:10.37,2013-08-11 11:22:00,
2013-08-11 13:27:00,63.2,59.2,30.02,SW,217,0.1,4.6,87,0.03,-RA,,0.03,415.0,WeatherDisplay:10.37,2013-08-11 11:27:00,
2013-08-11 13:32:00,63.9,59.9,30.02,SSW,209,3.3,6.9,87,0.03,BKN,,0.03,234.0,WeatherDisplay:10.37,2013-08-11 11:32:00,
2013-08-11 13:37:00,64.7,60.7,30.02,SSW,208,3.9,8.1,87,0.03,BKN,,0.03,759.0,WeatherDisplay:10.37,2013-08-11 11:37:00,
2013-08-11 13:43:00,66.2,61.9,30.02,SSW,199,6.4,9.2,86,0.03,BKN,,0.03,939.0,WeatherDisplay:10.37,2013-08-11 11:43:00,
2013-08-11 13:48:00,66.7,62.0,30.02,SW,225,8.9,12.7,85,0.02,BKN,,0.03,816.0,WeatherDisplay:10.37,2013-08-11 11:48:00,
2013-08-11 13:53:00,66.6,61.9,30.02,WSW,238,8.6,19.0,85,0.02,BKN,,0.03,279.0,WeatherDisplay:10.37,2013-08-11 11:53:00,
2013-08-11 13:58:00,66.5,60.8,30.01,WSW,249,12.7,16.1,82,0.00,BKN,,0.03,990.0,WeatherDisplay:10.37,2013-08-11 11:58:00,
2013-08-11 14:04:00,67.1,60.3,30.02,West,262,9.8,17.3,79,0.00,-RA,,0.03,997.0,WeatherDisplay:10.37,2013-08-11 12:04:00,
2013-08-11 14:09:00,67.9,60.4,30.01,WSW,255,9.3,11.5,77,0.00,-RA,,0.03,831.0,WeatherDisplay:10.37,2013-08-11 12:09:00,
2013-08-11 14:15:00,68.4,60.5,30.01,West,267,10.2,14.0,76,0.00,-RA,,0.03,944.0,WeatherDisplay:10.37,2013-08-11 12:15:00,
2013-08-11 14:20:00,68.8,60.5,30.01,WSW,243,13.2,13.2,75,0.00,-RA,,0.03,962.0,WeatherDisplay:10.37,2013-08-11 12:20:00,
2013-08-11 14:25:00,68.8,59.8,30.01,SW,232,7.9,16.1,73,0.00,-RA,,0.03,969.0,WeatherDisplay:10.37,2013-08-11 12:25:00,
2013-08-11 14:30:00,68.6,59.2,30.01,WSW,250,11.1,15.0,72,0.00,-RA,,0.03,881.0,WeatherDisplay:10.37,2013-08-11 12:30:00,
2013-08-11 14:35:00,68.5,59.1,30.01,WSW,247,10.3,15.0,72,0.00,FEW,,0.03,849.0,WeatherDisplay:10.37,2013-08-11 12:35:00,
2013-08-11 14:41:00,68.8,59.4,30.01,SW,236,7.5,11.5,72,0.00,FEW,,0.03,872.0,WeatherDisplay:10.37,2013-08-11 12:41:00,
2013-08-11 14:46:00,68.9,58.7,30.01,SW,230,9.1,15.0,70,0.00,FEW,,0.03,861.0,WeatherDisplay:10.37,2013-08-11 12:46:00,
2013-08-11 14:51:00,68.7,58.5,30.01,SW,234,10.5,15.0,70,0.00,FEW,,0.03,858.0,WeatherDisplay:10.37,2013-08-11 12:51:00,
2013-08-11 14:56:00,68.1,57.9,30.01,WSW,252,6.4,11.0,70,0.00,FEW,,0.03,188.0,WeatherDisplay:10.37,2013-08-11 12:56:00,
2013-08-11 15:02:00,68.5,59.1,30.01,West,262,10.9,12.7,72,0.00,FEW,,0.03,800.0,WeatherDisplay:10.37,2013-08-11 13:02:00,
2013-08-11 15:07:00,69.2,59.4,30.01,SSW,213,9.0,11.5,71,0.00,FEW,,0.03,823.0,WeatherDisplay:10.37,2013-08-11 13:07:00,
2013-08-11 15:13:00,69.6,59.4,30.01,WSW,248,11.0,15.0,70,0.00,FEW,,0.03,828.0,WeatherDisplay:10.37,2013-08-11 13:13:00,
2013-08-11 15:18:00,69.3,58.7,30.00,WSW,246,7.8,13.8,69,0.00,FEW,,0.03,786.0,WeatherDisplay:10.37,2013-08-11 13:18:00,
2013-08-11 15:23:00,69.8,59.1,30.01,WSW,254,9.1,15.0,69,0.00,FEW,,0.03,788.0,WeatherDisplay:10.37,2013-08-11 13:23:00,
2013-08-11 15:28:00,69.8,58.7,30.00,West,274,7.4,15.0,68,0.00,FEW,,0.03,826.0,WeatherDisplay:10.37,2013-08-11 13:28:00,
2013-08-11 15:34:00,69.5,59.3,30.00,WSW,257,7.7,12.7,70,0.00,FEW,,0.03,761.0,WeatherDisplay:10.37,2013-08-11 13:34:00,
2013-08-11 15:39:00,69.5,58.5,30.00,SW,221,9.6,17.3,68,0.00,FEW,,0.03,752.0,WeatherDisplay:10.37,2013-08-11 13:39:00,
2013-08-11 15:44:00,70.0,58.5,30.00,West,272,12.8,19.6,67,0.00,FEW,,0.03,731.0,WeatherDisplay:10.37,2013-08-11 13:44:00,
2013-08-11 15:49:00,69.9,58.0,30.00,SW,228,9.2,16.1,66,0.00,FEW,,0.03,726.0,WeatherDisplay:10.37,2013-08-11 13:49:00,
2013-08-11 15:54:00,70.0,58.1,30.00,West,270,8.9,11.5,66,0.00,FEW,,0.03,728.0,WeatherDisplay:10.37,2013-08-11 13:54:00,
2013-08-11 15:59:00,70.0,58.1,30.00,SW,233,7.9,11.5,66,0.00,FEW,,0.03,756.0,WeatherDisplay:10.37,2013-08-11 13:59:00,
2013-08-11 16:04:00,70.3,59.2,30.00,WSW,244,8.6,13.8,68,0.00,FEW,,0.03,796.0,WeatherDisplay:10.37,2013-08-11 14:04:00,
2013-08-11 16:09:00,70.1,58.6,30.00,WSW,238,8.8,12.7,67,0.00,FEW,,0.03,700.0,WeatherDisplay:10.37,2013-08-11 14:09:00,
2013-08-11 16:15:00,70.4,59.3,30.00,SW,228,9.0,13.0,68,0.00,FEW,,0.03,700.0,WeatherDisplay:10.37,2013-08-11 14:15:00,
2013-08-11 16:21:00,70.0,59.3,30.00,WSW,249,8.8,17.3,69,0.00,FEW,,0.03,773.0,WeatherDisplay:10.37,2013-08-11 14:21:00,
2013-08-11 16:26:00,70.2,59.5,30.00,WSW,256,10.0,13.8,69,0.00,FEW,,0.03,680.0,WeatherDisplay:10.37,2013-08-11 14:26:00,
2013-08-11 16:31:00,70.2,59.5,30.00,SW,234,9.8,15.0,69,0.00,FEW,,0.03,668.0,WeatherDisplay:10.37,2013-08-11 14:31:00,
2013-08-11 16:36:00,70.4,60.1,30.00,WSW,246,12.4,15.0,70,0.00,FEW,,0.03,724.0,WeatherDisplay:10.37,2013-08-11 14:36:00,
2013-08-11 16:41:00,70.5,60.2,30.00,WSW,252,7.9,11.5,70,0.00,FEW,,0.03,691.0,WeatherDisplay:10.37,2013-08-11 14:41:00,
2013-08-11 16:47:00,70.1,59.0,30.00,WNW,298,8.8,11.5,68,0.00,FEW,,0.03,652.0,WeatherDisplay:10.37,2013-08-11 14:47:00,
2013-08-11 16:52:00,69.3,58.7,30.00,WSW,254,9.4,16.1,69,0.00,FEW,,0.03,622.0,WeatherDisplay:10.37,2013-08-11 14:52:00,
2013-08-11 16:58:00,69.1,58.5,30.00,West,263,11.7,17.3,69,0.00,FEW,,0.03,587.0,WeatherDisplay:10.37,2013-08-11 14:58:00,
2013-08-11 17:03:00,69.1,58.9,29.99,West,263,7.4,12.7,70,0.00,FEW,,0.03,587.0,WeatherDisplay:10.37,2013-08-11 15:03:00,
2013-08-11 17:08:00,69.6,59.4,29.99,WSW,249,5.8,8.1,70,0.00,FEW,,0.03,568.0,WeatherDisplay:10.37,2013-08-11 15:08:00,
2013-08-11 17:13:00,70.2,59.5,29.99,West,275,5.3,9.2,69,0.00,FEW,,0.03,578.0,WeatherDisplay:10.37,2013-08-11 15:13:00,
2013-08-11 17:18:00,70.7,60.0,29.99,SW,227,6.5,9.2,69,0.00,FEW,,0.03,559.0,WeatherDisplay:10.37,2013-08-11 15:18:00,
2013-08-11 17:23:00,70.7,59.6,30.00,WSW,246,11.2,15.0,68,0.00,FEW,,0.03,543.0,WeatherDisplay:10.37,2013-08-11 15:23:00,
2013-08-11 17:29:00,70.1,59.4,29.99,SW,228,12.0,18.4,69,0.00,FEW,,0.03,533.0,WeatherDisplay:10.37,2013-08-11 15:29:00,
2013-08-11 17:34:00,70.4,59.3,29.99,WSW,250,7.8,16.1,68,0.00,FEW,,0.03,519.0,WeatherDisplay:10.37,2013-08-11 15:34:00,
2013-08-11 17:39:00,70.2,59.1,29.99,West,260,11.6,18.0,68,0.00,FEW,,0.03,499.0,WeatherDisplay:10.37,2013-08-11 15:39:00,
2013-08-11 17:44:00,70.2,59.5,29.99,WSW,249,8.9,12.7,69,0.00,FEW,,0.03,494.0,WeatherDisplay:10.37,2013-08-11 15:44:00,
2013-08-11 17:49:00,70.5,59.4,29.99,WSW,255,9.3,11.5,68,0.00,FEW,,0.03,513.0,WeatherDisplay:10.37,2013-08-11 15:49:00,
2013-08-11 17:54:00,70.2,59.1,29.99,WSW,249,11.6,13.8,68,0.00,FEW,,0.03,461.0,WeatherDisplay:10.37,2013-08-11 15:54:00,
2013-08-11 18:00:00,69.9,59.2,29.99,West,270,10.1,16.1,69,0.00,FEW,,0.03,439.0,WeatherDisplay:10.37,2013-08-11 16:00:00,
2013-08-11 18:05:00,69.8,60.0,29.98,West,268,8.7,11.5,71,0.00,FEW,,0.03,427.0,WeatherDisplay:10.37,2013-08-11 16:05:00,
2013-08-11 18:10:00,69.8,59.6,29.98,West,261,11.9,15.0,70,0.00,FEW,,0.03,411.0,WeatherDisplay:10.37,2013-08-11 16:10:00,
2013-08-11 18:16:00,70.0,60.1,29.98,SW,235,8.2,11.5,71,0.00,FEW,,0.03,399.0,WeatherDisplay:10.37,2013-08-11 16:16:00,
2013-08-11 18:22:00,69.9,59.6,29.98,SW,217,6.7,11.5,70,0.00,FEW,,0.03,378.0,WeatherDisplay:10.37,2013-08-11 16:22:00,
2013-08-11 18:27:00,69.8,60.0,29.98,WSW,244,9.6,15.0,71,0.00,FEW,,0.03,360.0,WeatherDisplay:10.37,2013-08-11 16:27:00,
2013-08-11 18:32:00,70.1,59.8,29.98,WSW,246,9.0,15.0,70,0.00,FEW,,0.03,360.0,WeatherDisplay:10.37,2013-08-11 16:32:00,
2013-08-11 18:37:00,69.8,59.1,29.98,WSW,246,12.5,16.1,69,0.00,FEW,,0.03,343.0,WeatherDisplay:10.37,2013-08-11 16:37:00,
2013-08-11 18:44:00,69.5,58.9,29.98,WSW,242,13.3,21.9,69,0.00,FEW,,0.03,336.0,WeatherDisplay:10.37,2013-08-11 16:44:00,
2013-08-11 18:49:00,68.7,58.5,29.98,WSW,240,10.3,16.1,70,0.00,BKN,,0.03,97.0,WeatherDisplay:10.37,2013-08-11 16:49:00,
2013-08-11 18:54:00,68.1,59.1,29.97,SW,235,7.3,17.3,73,0.00,SCT,,0.03,369.0,WeatherDisplay:10.37,2013-08-11 16:54:00,
2013-08-11 18:59:00,68.5,59.5,29.97,WSW,247,5.2,8.1,73,0.00,FEW,,0.03,323.0,WeatherDisplay:10.37,2013-08-11 16:59:00,
2013-08-11 19:04:00,69.1,59.7,29.98,West,265,10.1,13.8,72,0.00,SCT,,0.03,139.0,WeatherDisplay:10.37,2013-08-11 17:04:00,
2013-08-11 19:09:00,68.7,59.3,29.97,West,261,8.6,12.7,72,0.00,SCT,,0.03,171.0,WeatherDisplay:10.37,2013-08-11 17:09:00,
2013-08-11 19:14:00,68.5,59.5,29.97,WSW,247,8.1,11.5,73,0.00,SCT,,0.03,128.0,WeatherDisplay:10.37,2013-08-11 17:14:00,
2013-08-11 19:19:00,68.0,59.0,29.97,SW,236,9.5,13.8,73,0.00,SCT,,0.03,113.0,WeatherDisplay:10.37,2013-08-11 17:19:00,
2013-08-11 19:24:00,67.6,59.0,29.97,WSW,243,11.0,13.8,74,0.00,SCT,,0.03,98.0,WeatherDisplay:10.37,2013-08-11 17:24:00,
2013-08-11 19:29:00,67.6,59.7,29.97,West,264,6.3,10.4,76,0.00,SCT,,0.03,86.0,WeatherDisplay:10.37,2013-08-11 17:29:00,
2013-08-11 19:35:00,67.5,60.0,29.97,WSW,242,4.3,9.0,77,0.00,BKN,,0.03,62.0,WeatherDisplay:10.37,2013-08-11 17:35:00,
2013-08-11 19:40:00,67.3,59.5,29.97,WSW,244,6.3,11.5,76,0.00,SCT,,0.03,72.0,WeatherDisplay:10.37,2013-08-11 17:40:00,
2013-08-11 19:45:00,67.1,59.6,29.97,WSW,250,7.2,12.0,77,0.00,BKN,,0.03,53.0,WeatherDisplay:10.37,2013-08-11 17:45:00,
2013-08-11 19:50:00,66.9,59.4,29.97,WSW,251,5.5,6.9,77,0.00,SCT,,0.03,53.0,WeatherDisplay:10.37,2013-08-11 17:50:00,
2013-08-11 19:55:00,66.7,59.2,29.97,WSW,245,5.4,8.1,77,0.00,SCT,,0.03,54.0,WeatherDisplay:10.37,2013-08-11 17:55:00,
2013-08-11 20:00:00,66.7,59.2,29.97,WSW,256,4.5,8.1,77,0.00,FEW,,0.03,53.0,WeatherDisplay:10.37,2013-08-11 18:00:00,
2013-08-11 20:06:00,66.7,59.6,29.97,WSW,241,5.1,8.1,78,0.00,SCT,,0.03,30.0,WeatherDisplay:10.37,2013-08-11 18:06:00,
2013-08-11 20:11:00,66.7,59.6,29.97,WSW,238,5.3,9.0,78,0.00,FEW,,0.03,26.0,WeatherDisplay:10.37,2013-08-11 18:11:00,
2013-08-11 20:16:00,66.5,59.8,29.97,West,268,6.0,6.9,79,0.00,FEW,,0.03,26.0,WeatherDisplay:10.37,2013-08-11 18:16:00,
2013-08-11 20:21:00,66.4,59.7,29.97,WSW,253,6.0,8.1,79,0.00,FEW,,0.03,21.0,WeatherDisplay:10.37,2013-08-11 18:21:00,
2013-08-11 20:26:00,66.3,59.6,29.97,WSW,242,5.5,8.1,79,0.00,FEW,,0.03,21.0,WeatherDisplay:10.37,2013-08-11 18:26:00,
2013-08-11 20:31:00,66.1,59.7,29.97,WSW,247,4.5,9.2,80,0.00,FEW,,0.03,25.0,WeatherDisplay:10.37,2013-08-11 18:31:00,
2013-08-11 20:37:00,66.1,59.7,29.97,WSW,255,6.3,8.1,80,0.00,FEW,,0.03,32.0,WeatherDisplay:10.37,2013-08-11 18:37:00,
2013-08-11 20:42:00,66.0,59.6,29.97,WSW,255,4.8,10.4,80,0.00,FEW,,0.03,26.0,WeatherDisplay:10.37,2013-08-11 18:42:00,
2013-08-11 20:47:00,65.9,59.9,29.97,WSW,247,6.8,11.5,81,0.00,FEW,,0.03,19.0,WeatherDisplay:10.37,2013-08-11 18:47:00,
2013-08-11 20:53:00,65.8,59.8,29.97,WSW,248,3.3,3.5,81,0.00,FEW,,0.03,12.0,WeatherDisplay:10.37,2013-08-11 18:53:00,
2013-08-11 20:59:00,65.5,59.5,29.98,West,259,6.5,11.5,81,0.00,FEW,,0.03,9.0,WeatherDisplay:10.37,2013-08-11 18:59:00,
2013-08-11 21:04:00,65.3,59.3,29.98,WSW,258,4.2,6.9,81,0.00,SCT,,0.03,5.0,WeatherDisplay:10.37,2013-08-11 19:04:00,
2013-08-11 21:09:00,65.1,59.4,29.98,West,277,4.2,6.9,82,0.00,SCT,,0.03,5.0,WeatherDisplay:10.37,2013-08-11 19:09:00,
2013-08-11 21:14:00,65.0,59.7,29.98,West,263,5.5,8.1,83,0.00,SCT,,0.03,0.0,WeatherDisplay:10.37,2013-08-11 19:14:00,
2013-08-11 21:20:00,65.0,59.7,29.98,West,264,7.0,9.2,83,0.00,SCT,,0.03,0.0,WeatherDisplay:10.37,2013-08-11 19:20:00,
2013-08-11 21:25:00,64.9,59.9,29.98,West,259,5.1,5.8,84,0.00,SCT,,0.03,0.0,WeatherDisplay:10.37,2013-08-11 19:25:00,
2013-08-11 21:30:00,64.9,59.9,29.98,WSW,253,6.3,11.0,84,0.00,SCT,,0.03,0.0,WeatherDisplay:10.37,2013-08-11 19:30:00,
2013-08-11 21:35:00,64.7,59.7,29.98,West,274,4.4,9.2,84,0.00,SCT,,0.03,0.0,WeatherDisplay:10.37,2013-08-11 19:35:00,
2013-08-11 21:41:00,64.5,59.5,29.98,West,278,5.6,10.4,84,0.00,SCT,,0.03,0.0,WeatherDisplay:10.37,2013-08-11 19:41:00,
2013-08-11 21:46:00,64.4,59.4,29.99,West,270,6.6,10.4,84,0.00,SCT,,0.03,0.0,WeatherDisplay:10.37,2013-08-11 19:46:00,
2013-08-11 21:52:00,64.4,59.4,29.99,West,261,5.8,8.1,84,0.00,SCT,,0.03,0.0,WeatherDisplay:10.37,2013-08-11 19:52:00,
2013-08-11 21:57:00,64.4,59.8,29.99,WSW,257,5.5,11.5,85,0.00,SCT,,0.03,0.0,WeatherDisplay:10.37,2013-08-11 19:57:00,
2013-08-11 22:02:00,64.3,59.7,29.98,West,260,2.5,6.0,85,0.00,FEW,,0.03,0.0,WeatherDisplay:10.37,2013-08-11 20:02:00,
2013-08-11 22:07:00,64.2,59.6,29.99,WSW,252,3.3,5.8,85,0.00,FEW,,0.03,0.0,WeatherDisplay:10.37,2013-08-11 20:07:00,
2013-08-11 22:12:00,64.2,59.6,29.99,West,269,4.1,5.8,85,0.00,FEW,,0.03,0.0,WeatherDisplay:10.37,2013-08-11 20:12:00,
2013-08-11 22:17:00,64.1,59.8,29.99,West,267,0.2,4.6,86,0.00,FEW,,0.03,0.0,WeatherDisplay:10.37,2013-08-11 20:17:00,
2013-08-11 22:22:00,64.0,59.7,29.99,West,266,4.1,6.9,86,0.00,FEW,,0.03,0.0,WeatherDisplay:10.37,2013-08-11 20:22:00,
2013-08-11 22:27:00,63.8,59.5,29.99,West,266,3.9,5.0,86,0.00,FEW,,0.03,0.0,WeatherDisplay:10.37,2013-08-11 20:27:00,
2013-08-11 22:32:00,63.8,59.5,29.99,West,266,3.3,4.6,86,0.00,CLR,,0.03,0.0,WeatherDisplay:10.37,2013-08-11 20:32:00,
2013-08-11 22:38:00,63.7,59.7,29.99,West,266,1.4,4.6,87,0.00,CLR,,0.03,0.0,WeatherDisplay:10.37,2013-08-11 20:38:00,
2013-08-11 22:43:00,63.6,59.6,29.99,West,266,0.0,0.0,87,0.00,CLR,,0.03,0.0,WeatherDisplay:10.37,2013-08-11 20:43:00,
2013-08-11 22:48:00,63.5,59.5,29.98,WSW,257,5.0,8.1,87,0.00,CLR,,0.03,0.0,WeatherDisplay:10.37,2013-08-11 20:48:00,
2013-08-11 22:53:00,63.5,59.5,29.98,West,260,4.4,6.9,87,0.00,CLR,,0.03,0.0,WeatherDisplay:10.37,2013-08-11 20:53:00,
2013-08-11 22:58:00,63.5,59.5,29.98,WSW,257,3.0,6.9,87,0.00,CLR,,0.03,0.0,WeatherDisplay:10.37,2013-08-11 20:58:00,
2013-08-11 23:03:00,63.5,59.5,29.98,West,259,3.1,6.0,87,0.00,SCT,,0.03,0.0,WeatherDisplay:10.37,2013-08-11 21:03:00,
2013-08-11 23:08:00,63.5,59.9,29.98,WSW,253,4.7,5.8,88,0.00,SCT,,0.03,0.0,WeatherDisplay:10.37,2013-08-11 21:08:00,
2013-08-11 23:14:00,63.5,59.9,29.98,WSW,254,3.2,3.5,88,0.00,SCT,,0.03,0.0,WeatherDisplay:10.37,2013-08-11 21:14:00,
2013-08-11 23:19:00,63.6,60.0,29.98,WSW,255,4.0,6.9,88,0.00,SCT,,0.03,0.0,WeatherDisplay:10.37,2013-08-11 21:19:00,
2013-08-11 23:25:00,63.6,60.0,29.98,WSW,256,3.5,5.0,88,0.00,SCT,,0.03,0.0,WeatherDisplay:10.37,2013-08-11 21:25:00,
2013-08-11 23:30:00,63.6,60.0,29.98,WSW,255,0.0,0.0,88,0.00,SCT,,0.03,0.0,WeatherDisplay:10.37,2013-08-11 21:30:00,
2013-08-11 23:36:00,63.6,60.0,29.98,WSW,256,3.5,4.6,88,0.00,BKN,,0.03,0.0,WeatherDisplay:10.37,2013-08-11 21:36:00,
2013-08-11 23:42:00,63.6,60.0,29.98,WSW,256,3.2,4.6,88,0.00,BKN,,0.03,0.0,WeatherDisplay:10.37,2013-08-11 21:42:00,
2013-08-11 23:47:00,63.6,60.0,29.98,WSW,256,0.4,3.5,88,0.00,BKN,,0.03,0.0,WeatherDisplay:10.37,2013-08-11 21:47:00,
2013-08-11 23:52:00,63.5,59.9,29.98,WSW,256,3.9,5.8,88,0.00,BKN,,0.03,0.0,WeatherDisplay:10.37,2013-08-11 21:52:00,
2013-08-11 23:58:00,63.4,59.8,29.98,WSW,240,3.8,9.2,88,0.00,BKN,,0.03,0.0,WeatherDisplay:10.37,2013-08-11 21:58:00,